TimePDT,TemperatureF,Dew PointF,Humidity,Sea Level PressureIn,VisibilityMPH,Wind Direction,Wind SpeedMPH,Gust SpeedMPH,PrecipitationIn,Events,Conditions,WindDirDegrees,DateUTC
12:00 AM,39.2,39.2,100,30.08,5.0,Calm,Calm,-,N/A,,Clear,0,2012-10-08 07:00:00
12:06 AM,39.2,37.4,93,30.08,2.5,Calm,Calm,-,N/A,,Clear,0,2012-10-08 07:06:00
12:10 AM,37.4,37.4,100,30.08,3.0,Calm,Calm,-,N/A,,Clear,0,2012-10-08 07:10:00
12:16 AM,35.6,33.8,93,30.09,9.0,Calm,Calm,-,N/A,,Clear,0,2012-10-08 07:16:00
12:17 AM,35.6,33.8,93,30.09,2.0,Calm,Calm,-,N/A,,Partly Cloudy,0,2012-10-08 07:17:00
12:30 AM,39.2,37.4,93,30.09,3.0,Calm,Calm,-,N/A,,Partly Cloudy,0,2012-10-08 07:30:00
12:31 AM,37.4,37.4,100,30.09,6.0,Calm,Calm,-,N/A,,Partly Cloudy,0,2012-10-08 07:31:00
12:46 AM,35.6,33.8,93,30.09,3.0,Calm,Calm,-,N/A,,Partly Cloudy,0,2012-10-08 07:46:00
12:51 AM,35.6,35.6,100,30.09,1.2,Calm,Calm,-,N/A,,Partly Cloudy,0,2012-10-08 07:51:00
1:00 AM,37.4,35.6,93,30.08,0.4,Calm,Calm,-,N/A,Fog,Fog,0,2012-10-08 08:00:00
1:08 AM,37.4,37.4,100,30.08,3.0,Calm,Calm,-,N/A,,Partly Cloudy,0,2012-10-08 08:08:00
1:09 AM,37.4,35.6,93,30.08,8.0,Calm,Calm,-,N/A,,Partly Cloudy,0,2012-10-08 08:09:00
1:21 AM,37.4,35.6,93,30.08,4.0,Variable,2.3,-,N/A,,Partly Cloudy,0,2012-10-08 08:21:00
1:22 AM,37.4,37.4,100,30.08,1.8,Variable,2.3,-,N/A,,Partly Cloudy,0,2012-10-08 08:22:00
1:35 AM,37.4,37.4,100,30.08,3.0,Variable,2.3,-,N/A,,Scattered Clouds,0,2012-10-08 08:35:00
1:36 AM,37.4,35.6,93,30.08,9.0,Variable,2.3,-,N/A,,Scattered Clouds,0,2012-10-08 08:36:00
2:00 AM,35.6,35.6,100,30.08,9.0,Calm,Calm,-,N/A,,Clear,0,2012-10-08 09:00:00
2:04 AM,35.6,35.6,100,30.08,9.0,Calm,Calm,-,N/A,,Partly Cloudy,0,2012-10-08 09:04:00
2:12 AM,35.6,33.8,93,30.09,3.0,Variable,2.3,-,N/A,,Partly Cloudy,0,2012-10-08 09:12:00
2:13 AM,35.6,33.8,93,30.09,2.5,Variable,2.3,-,N/A,,Partly Cloudy,0,2012-10-08 09:13:00
2:36 AM,35.6,35.6,100,30.09,3.0,Variable,2.3,-,N/A,,Partly Cloudy,0,2012-10-08 09:36:00
2:40 AM,35.6,35.6,100,30.09,2.5,Variable,2.3,-,N/A,,Partly Cloudy,0,2012-10-08 09:40:00
2:57 AM,33.8,33.8,100,30.10,3.0,NE,2.3,-,N/A,,Scattered Clouds,40,2012-10-08 09:57:00
2:58 AM,33.8,33.8,100,30.10,6.0,NE,2.3,-,N/A,,Scattered Clouds,40,2012-10-08 09:58:00
3:00 AM,33.8,33.8,100,30.09,9.0,NNE,2.3,-,N/A,,Mostly Cloudy,30,2012-10-08 10:00:00
3:13 AM,35.6,35.6,100,30.09,4.0,Calm,Calm,-,N/A,,Mostly Cloudy,0,2012-10-08 10:13:00
3:18 AM,37.4,35.6,93,30.09,2.2,Calm,Calm,-,N/A,,Overcast,0,2012-10-08 10:18:00
3:25 AM,35.6,35.6,100,30.09,3.0,Calm,Calm,-,N/A,,Overcast,0,2012-10-08 10:25:00
3:40 AM,37.4,35.6,93,30.09,3.0,Calm,Calm,-,N/A,,Overcast,0,2012-10-08 10:40:00
3:47 AM,35.6,35.6,100,30.09,2.2,Variable,2.3,-,N/A,,Overcast,0,2012-10-08 10:47:00
3:58 AM,35.6,35.6,100,30.09,3.0,Calm,Calm,-,N/A,,Overcast,0,2012-10-08 10:58:00
4:00 AM,35.6,33.8,93,30.09,3.0,Calm,Calm,-,N/A,,Overcast,0,2012-10-08 11:00:00
4:03 AM,33.8,33.8,100,30.09,1.8,Calm,Calm,-,N/A,,Overcast,0,2012-10-08 11:03:00
4:45 AM,35.6,35.6,100,30.09,3.0,Calm,Calm,-,N/A,,Overcast,0,2012-10-08 11:45:00
4:47 AM,35.6,35.6,100,30.09,9.0,Calm,Calm,-,N/A,,Overcast,0,2012-10-08 11:47:00
4:51 AM,35.6,35.6,100,30.09,5.0,Calm,Calm,-,N/A,,Overcast,0,2012-10-08 11:51:00
5:00 AM,35.6,33.8,93,30.10,5.0,Variable,2.3,-,N/A,,Overcast,0,2012-10-08 12:00:00
5:01 AM,35.6,35.6,100,30.10,7.0,Calm,Calm,-,N/A,,Overcast,0,2012-10-08 12:01:00
5:07 AM,35.6,35.6,100,30.10,5.0,Calm,Calm,-,N/A,,Overcast,0,2012-10-08 12:07:00
5:08 AM,35.6,35.6,100,30.10,2.5,Variable,2.3,-,N/A,,Overcast,0,2012-10-08 12:08:00
6:00 AM,35.6,35.6,100,30.12,0.2,Calm,Calm,-,N/A,Fog,Fog,0,2012-10-08 13:00:00
7:00 AM,35.6,35.6,100,30.13,0.1,Calm,Calm,-,N/A,Fog,Fog,0,2012-10-08 14:00:00
8:00 AM,33.8,33.8,100,30.16,0.1,Calm,Calm,-,N/A,Fog,Fog,0,2012-10-08 15:00:00
9:00 AM,35.6,35.6,100,30.17,0.1,Calm,Calm,-,N/A,Fog,Fog,0,2012-10-08 16:00:00
10:00 AM,39.2,39.2,100,30.17,0.1,Calm,Calm,-,N/A,Fog,Fog,0,2012-10-08 17:00:00
10:45 AM,42.8,41.0,93,30.16,3.0,Calm,Calm,-,N/A,,Overcast,0,2012-10-08 17:45:00
10:48 AM,42.8,42.8,100,30.16,6.0,Variable,2.3,-,N/A,,Mostly Cloudy,0,2012-10-08 17:48:00
10:56 AM,42.8,42.8,100,30.15,9.0,Variable,2.3,-,N/A,,Scattered Clouds,0,2012-10-08 17:56:00
11:00 AM,44.6,42.8,93,30.16,9.0,Variable,2.3,-,N/A,,Scattered Clouds,0,2012-10-08 18:00:00
12:00 PM,51.8,44.6,76,30.14,9.0,Variable,2.3,-,N/A,,Clear,0,2012-10-08 19:00:00
1:00 PM,59.0,41.0,51,30.12,9.0,WNW,5.8,-,N/A,,Clear,300,2012-10-08 20:00:00
2:00 PM,62.6,37.4,39,30.09,9.0,NNW,8.1,-,N/A,,Clear,340,2012-10-08 21:00:00
3:00 PM,62.6,35.6,37,30.07,9.0,WNW,4.6,-,N/A,,Clear,290,2012-10-08 22:00:00
4:00 PM,64.4,35.6,34,30.07,9.0,North,5.8,-,N/A,,Clear,350,2012-10-08 23:00:00
5:00 PM,64.4,35.6,34,30.06,9.0,NW,5.8,-,N/A,,Clear,310,2012-10-09 00:00:00
6:00 PM,55.4,37.4,51,30.06,9.0,North,2.3,-,N/A,,Clear,350,2012-10-09 01:00:00
7:00 PM,50.0,35.6,58,30.07,9.0,North,3.5,-,N/A,,Clear,10,2012-10-09 02:00:00
8:00 PM,48.2,35.6,62,30.08,6.0,East,3.5,-,N/A,,Haze,90,2012-10-09 03:00:00
8:02 PM,48.2,35.6,62,30.09,4.0,Variable,2.3,-,N/A,,Haze,0,2012-10-09 03:02:00
8:09 PM,46.4,35.6,66,30.09,7.0,Variable,3.5,-,N/A,,Clear,0,2012-10-09 03:09:00
9:00 PM,41.0,33.8,76,30.11,9.0,Calm,Calm,-,N/A,,Clear,0,2012-10-09 04:00:00
11:00 PM,37.4,33.8,87,30.13,9.0,Calm,Calm,-,N/A,,Clear,0,2012-10-09 06:00:00